CFG4078 HKMO-HTZA

Flight info

Callsign CFG4078
Flight time 0h 30m
Altitude 18000
Route IMSIS2A UVUKO DCT OKPOL DCT IMTOM DCT IMVIV
Aircraft A320/M-SDE3FGHIRWY/LB1

Departure

Time 2026-04-27 17:39
Airport Moi International Airport (HKMO)

Arrival

Time 2026-04-27 18:09
Airport Abeid Amani Karume International Airport (HTZA)
Time Latitude Longitude Altitude Speed Heading
2026-04-27 17:28 -4.03188 39.60134 205 ft 4 kts 83°
2026-04-27 17:28 -4.03196 39.60114 216 ft 2 kts 30°
2026-04-27 17:28 -4.03202 39.60111 209 ft 0 kts 29°
2026-04-27 17:31 -4.03179 39.60124 214 ft 9 kts 29°
2026-04-27 17:32 -4.03123 39.60153 214 ft 9 kts 18°
2026-04-27 17:32 -4.03047 39.60100 208 ft 6 kts 299°
2026-04-27 17:32 -4.03026 39.60064 210 ft 7 kts 299°
2026-04-27 17:33 -4.02975 39.59972 212 ft 17 kts 300°
2026-04-27 17:33 -4.02884 39.59965 207 ft 14 kts 26°
2026-04-27 17:33 -4.02799 39.60011 212 ft 13 kts 29°
2026-04-27 17:33 -4.02719 39.60057 212 ft 13 kts 30°
2026-04-27 17:34 -4.02646 39.60098 210 ft 12 kts 30°
2026-04-27 17:34 -4.02576 39.60139 211 ft 11 kts 32°
2026-04-27 17:34 -4.02505 39.60176 214 ft 14 kts 27°
2026-04-27 17:34 -4.02419 39.60224 207 ft 14 kts 30°
2026-04-27 17:35 -4.02338 39.60270 212 ft 13 kts 29°
2026-04-27 17:35 -4.02247 39.60322 212 ft 17 kts 29°
2026-04-27 17:35 -4.02146 39.60377 217 ft 16 kts 29°
2026-04-27 17:35 -4.02049 39.60431 210 ft 16 kts 29°
2026-04-27 17:36 -4.01957 39.60483 211 ft 15 kts 29°
2026-04-27 17:36 -4.01869 39.60532 215 ft 14 kts 29°
2026-04-27 17:36 -4.01784 39.60580 211 ft 14 kts 29°
2026-04-27 17:36 -4.01704 39.60625 211 ft 13 kts 29°
2026-04-27 17:37 -4.01628 39.60667 210 ft 12 kts 29°
2026-04-27 17:37 -4.01557 39.60707 210 ft 11 kts 29°
2026-04-27 17:37 -4.01487 39.60735 216 ft 10 kts 12°
2026-04-27 17:37 -4.01419 39.60731 210 ft 9 kts 344°
2026-04-27 17:38 -4.01393 39.60721 207 ft 0 kts 336°
2026-04-27 17:38 -4.01373 39.60710 211 ft 15 kts 328°
2026-04-27 17:38 -4.01399 39.60597 208 ft 11 kts 212°
2026-04-27 17:38 -4.01461 39.60560 212 ft 11 kts 209°
2026-04-27 17:39 -4.01656 39.60453 211 ft 70 kts 210°
2026-04-27 17:39 -4.02270 39.60111 210 ft 129 kts 209°
2026-04-27 17:39 -4.03179 39.59600 326 ft 160 kts 208°
2026-04-27 17:39 -4.04113 39.59073 1045 ft 151 kts 206°
2026-04-27 17:40 -4.05045 39.58573 1606 ft 157 kts 205°
2026-04-27 17:40 -4.06062 39.58020 1836 ft 177 kts 206°
2026-04-27 17:40 -4.07198 39.57387 1985 ft 197 kts 207°
2026-04-27 17:40 -4.08443 39.56692 2130 ft 215 kts 207°
2026-04-27 17:41 -4.09829 39.55919 2341 ft 240 kts 207°
2026-04-27 17:41 -4.11314 39.55085 3076 ft 248 kts 207°
2026-04-27 17:41 -4.12835 39.54230 3885 ft 253 kts 207°
2026-04-27 17:41 -4.14384 39.53360 4700 ft 258 kts 207°
2026-04-27 17:42 -4.15965 39.52472 5474 ft 263 kts 207°
2026-04-27 17:42 -4.17423 39.51654 6179 ft 268 kts 207°
2026-04-27 17:42 -4.19061 39.50734 6907 ft 272 kts 207°
2026-04-27 17:42 -4.20726 39.49797 7640 ft 276 kts 207°
2026-04-27 17:43 -4.22413 39.48850 8366 ft 280 kts 208°
2026-04-27 17:43 -4.24162 39.47953 9081 ft 284 kts 200°
2026-04-27 17:43 -4.26089 39.47499 9801 ft 287 kts 184°
2026-04-27 17:43 -4.28114 39.47529 10257 ft 301 kts 176°
2026-04-27 17:44 -4.30289 39.47658 10435 ft 324 kts 176°
2026-04-27 17:44 -4.32583 39.47803 10858 ft 335 kts 176°
2026-04-27 17:44 -4.34930 39.47954 11464 ft 340 kts 176°
2026-04-27 17:44 -4.37309 39.48105 12094 ft 345 kts 176°
2026-04-27 17:45 -4.39722 39.48254 12733 ft 350 kts 176°
2026-04-27 17:45 -4.42167 39.48399 13362 ft 354 kts 176°
2026-04-27 17:45 -4.44644 39.48543 13955 ft 359 kts 176°
2026-04-27 17:45 -4.47145 39.48692 14512 ft 362 kts 176°
2026-04-27 17:46 -4.49675 39.48845 15083 ft 366 kts 176°
2026-04-27 17:46 -4.52187 39.48997 15538 ft 354 kts 176°
2026-04-27 17:46 -4.54613 39.49145 15281 ft 346 kts 176°
2026-04-27 17:46 -4.57005 39.49292 14904 ft 343 kts 176°
2026-04-27 17:47 -4.59376 39.49438 14519 ft 340 kts 176°
2026-04-27 17:47 -4.60967 39.49534 14258 ft 338 kts 176°
2026-04-27 17:47 -4.64069 39.49719 13938 ft 337 kts 176°
2026-04-27 17:47 -4.66406 39.49858 13933 ft 337 kts 176°
2026-04-27 17:48 -4.68750 39.49982 13937 ft 338 kts 179°
2026-04-27 17:48 -4.71085 39.49816 13941 ft 337 kts 189°
2026-04-27 17:48 -4.73376 39.49306 13944 ft 337 kts 194°
2026-04-27 17:48 -4.75647 39.48738 13942 ft 337 kts 194°
2026-04-27 17:49 -4.77922 39.48177 13941 ft 337 kts 193°
2026-04-27 17:49 -4.80196 39.47616 13942 ft 336 kts 194°
2026-04-27 17:49 -4.82466 39.47052 13942 ft 336 kts 194°
2026-04-27 17:49 -4.84737 39.46489 13942 ft 336 kts 193°
2026-04-27 17:50 -4.87004 39.45929 13940 ft 336 kts 193°
2026-04-27 17:50 -4.91541 39.44802 13944 ft 335 kts 194°
2026-04-27 17:50 -4.93801 39.44239 13945 ft 335 kts 194°
2026-04-27 17:51 -4.96066 39.43675 13941 ft 335 kts 194°
2026-04-27 17:51 -4.98329 39.43109 13940 ft 335 kts 194°
2026-04-27 17:51 -5.00592 39.42543 13944 ft 335 kts 193°
2026-04-27 17:51 -5.02843 39.41980 13741 ft 332 kts 193°
2026-04-27 17:52 -5.05079 39.41424 13296 ft 330 kts 193°
2026-04-27 17:52 -5.07299 39.40872 12882 ft 328 kts 193°
2026-04-27 17:52 -5.09503 39.40325 12477 ft 325 kts 193°
2026-04-27 17:52 -5.11689 39.39784 12072 ft 322 kts 193°
2026-04-27 17:53 -5.13857 39.39245 11675 ft 320 kts 193°
2026-04-27 17:53 -5.16008 39.38708 11284 ft 317 kts 193°
2026-04-27 17:53 -5.18143 39.38177 10899 ft 315 kts 193°
2026-04-27 17:53 -5.20259 39.37648 10508 ft 313 kts 193°
2026-04-27 17:54 -5.22367 39.37122 10123 ft 311 kts 193°
2026-04-27 17:54 -5.24430 39.36608 9942 ft 306 kts 193°
2026-04-27 17:54 -5.26467 39.36100 9934 ft 291 kts 193°
2026-04-27 17:54 -5.28408 39.35615 9649 ft 286 kts 193°
2026-04-27 17:55 -5.30329 39.35137 9277 ft 283 kts 193°
2026-04-27 17:55 -5.32236 39.34663 8903 ft 281 kts 193°
2026-04-27 17:55 -5.34128 39.34192 8526 ft 280 kts 193°
2026-04-27 17:55 -5.36012 39.33723 8161 ft 278 kts 193°
2026-04-27 17:56 -5.37883 39.33255 7792 ft 276 kts 193°
2026-04-27 17:56 -5.39718 39.32797 7430 ft 275 kts 193°
2026-04-27 17:56 -5.41566 39.32339 7100 ft 272 kts 193°
2026-04-27 17:56 -5.43397 39.31884 7040 ft 272 kts 192°
2026-04-27 17:57 -5.45233 39.31428 6902 ft 270 kts 193°
2026-04-27 17:57 -5.47054 39.30972 6511 ft 270 kts 193°
2026-04-27 17:57 -5.48868 39.30520 6150 ft 267 kts 192°
2026-04-27 17:57 -5.50669 39.30070 5772 ft 266 kts 192°
2026-04-27 17:58 -5.52454 39.29626 5420 ft 263 kts 192°
2026-04-27 17:58 -5.54224 39.29183 5093 ft 260 kts 192°
2026-04-27 17:58 -5.55979 39.28747 5039 ft 260 kts 192°
2026-04-27 17:58 -5.57737 39.28311 4916 ft 259 kts 192°
2026-04-27 17:59 -5.59485 39.27874 4516 ft 258 kts 192°
2026-04-27 17:59 -5.61220 39.27441 4150 ft 256 kts 192°
2026-04-27 17:59 -5.62941 39.27011 4033 ft 254 kts 192°
2026-04-27 17:59 -5.64663 39.26582 4035 ft 256 kts 192°
2026-04-27 18:00 -5.65830 39.26291 4036 ft 255 kts 192°
2026-04-27 18:00 -5.68111 39.25721 4042 ft 256 kts 192°
2026-04-27 18:00 -5.69840 39.25289 4040 ft 256 kts 192°
2026-04-27 18:00 -5.71564 39.24858 4039 ft 255 kts 192°
2026-04-27 18:01 -5.73288 39.24428 4024 ft 255 kts 192°
2026-04-27 18:01 -5.74999 39.24002 3687 ft 253 kts 192°
2026-04-27 18:01 -5.76329 39.23669 3386 ft 252 kts 192°
2026-04-27 18:01 -5.78026 39.23246 3084 ft 249 kts 192°
2026-04-27 18:02 -5.79709 39.22828 3041 ft 250 kts 192°
2026-04-27 18:02 -5.81408 39.22407 3042 ft 252 kts 192°
2026-04-27 18:02 -5.83109 39.21984 3040 ft 252 kts 192°
2026-04-27 18:02 -5.84812 39.21558 3047 ft 253 kts 192°
2026-04-27 18:03 -5.86516 39.21131 3037 ft 252 kts 192°
2026-04-27 18:03 -5.88054 39.20746 3037 ft 252 kts 193°
2026-04-27 18:03 -5.89543 39.20373 3038 ft 253 kts 192°
2026-04-27 18:03 -5.91307 39.19933 3038 ft 253 kts 192°
2026-04-27 18:04 -5.93005 39.19637 3033 ft 240 kts 181°
2026-04-27 18:04 -5.94618 39.19708 3038 ft 226 kts 174°
2026-04-27 18:04 -5.96200 39.19876 3036 ft 230 kts 174°
2026-04-27 18:04 -5.97790 39.20042 3036 ft 230 kts 174°
2026-04-27 18:05 -5.99388 39.20203 3036 ft 230 kts 174°
2026-04-27 18:05 -6.00980 39.20362 2882 ft 230 kts 174°
2026-04-27 18:05 -6.02565 39.20521 2593 ft 229 kts 174°
2026-04-27 18:05 -6.04135 39.20678 2327 ft 222 kts 174°
2026-04-27 18:06 -6.05629 39.20828 2163 ft 211 kts 174°
2026-04-27 18:06 -6.07083 39.20973 2065 ft 209 kts 174°
2026-04-27 18:06 -6.08528 39.21118 2037 ft 209 kts 174°
2026-04-27 18:06 -6.09975 39.21263 2036 ft 210 kts 174°
2026-04-27 18:07 -6.11430 39.21409 1883 ft 210 kts 174°
2026-04-27 18:07 -6.12858 39.21552 1646 ft 199 kts 174°
2026-04-27 18:07 -6.14163 39.21683 1398 ft 180 kts 174°
2026-04-27 18:07 -6.15348 39.21797 1231 ft 158 kts 174°
2026-04-27 18:08 -6.16402 39.21909 992 ft 152 kts 174°
2026-04-27 18:08 -6.17437 39.22013 789 ft 150 kts 174°
2026-04-27 18:08 -6.18476 39.22113 629 ft 152 kts 174°
2026-04-27 18:08 -6.19501 39.22221 413 ft 144 kts 173°
2026-04-27 18:09 -6.20492 39.22320 217 ft 141 kts 174°
2026-04-27 18:09 -6.21439 39.22415 72 ft 129 kts 174°
2026-04-27 18:09 -6.22226 39.22492 52 ft 88 kts 173°
2026-04-27 18:09 -6.22661 39.22540 55 ft 38 kts 173°
2026-04-27 18:10 -6.22846 39.22555 49 ft 29 kts 176°
2026-04-27 18:10 -6.22989 39.22524 52 ft 16 kts 255°
2026-04-27 18:10 -6.22991 39.22428 56 ft 13 kts 278°
2026-04-27 18:10 -6.22923 39.22390 56 ft 11 kts 353°
2026-04-27 18:11 -6.22833 39.22383 54 ft 21 kts 355°
2026-04-27 18:11 -6.22624 39.22363 57 ft 34 kts 353°
2026-04-27 18:11 -6.22466 39.22346 56 ft 33 kts 355°
2026-04-27 18:11 -6.22307 39.22331 59 ft 17 kts 355°
2026-04-27 18:12 -6.22242 39.22323 56 ft 9 kts 346°
2026-04-27 18:12 -6.22223 39.22279 59 ft 7 kts 269°
2026-04-27 18:12 -6.22225 39.22250 57 ft 1 kts 265°
2026-04-27 18:12 -6.22225 39.22246 59 ft 0 kts 266°